Location: Arclight Observatory
(36.5667°N, 87.3333°W)
Time: 22:04:03
(UTC-05:00)

HST - Visible Passes

Search period start: 22 October 2014 00:00
Search period end: 01 November 2014 00:00
Orbit: 546 x 550 km, 28.5° (Epoch: 22 October)

Date Brightness Start Highest point End Pass type
(mag) Time Alt. Az. Time Alt. Az. Time Alt. Az.
23 Oct 3.4 20:03:55 10° SSW 20:04:13 11° S 20:04:13 11° S visible
24 Oct 3.1 19:56:01 10° SSW 19:57:30 15° S 19:57:30 15° S visible
25 Oct 2.7 19:48:19 10° SSW 19:50:43 19° S 19:50:43 19° S visible
26 Oct 2.5 19:40:42 10° SW 19:43:54 22° S 19:43:54 22° S visible
27 Oct 2.3 19:33:10 10° SW 19:36:34 24° S 19:37:03 23° SSE visible
28 Oct 2.2 19:25:42 10° SW 19:29:11 26° S 19:30:10 23° SSE visible
29 Oct 2.3 19:18:16 10° SW 19:21:48 27° S 19:23:16 21° SE visible
30 Oct 2.3 19:10:51 10° WSW 19:14:24 27° S 19:16:23 19° SE visible
31 Oct 2.4 19:03:29 10° WSW 19:07:00 26° S 19:09:31 15° SE visible
